VIASAT-3 F2

Last updated on Tue Sep 22 2026 00:03:16 GMT+0000 (Coordinated Universal Time)

1 66454U 25261A 26264.11460613 -.00000238 00000+0 00000+0 0 9995 2 66454 0.0070 202.3021 0000925 60.5368 59.4367 1.00272463 3752
UTC large
Height (km)
Speed (km/s)
/
Latitude / Longitude
Inclination (degrees)
Orbital Period (minutes)
Azimuth
Elevation
Range (km)
Doppler Factor

Next 0 passes for location: London (51.5072 / 0.1276)

No passes found over London.
VIASAT-3 F2